User: anonymous   Login
Location: Gebenbach
(49.5378°N, 11.8735°E)
Time: 21:17:45
(UTC+00:00)
Language:

COSMOS 2455 - Orbit

View from above orbital plane
View from above orbital plane
View from above satellite
View from above satellite

Ground track
Ground track

The orbit data is extracted from the following two-line orbital elements,

1 36095U 09063A   21016.29265602 -.00000051  00000-0  17347-4 0  9996
2 36095  67.1488  21.7615 0006610 244.6899 115.3501 13.96774847568940
Epoch (UTC): 16 January 2021 07:01:25
Eccentricity: 0.0006610
inclination: 67.1488°
perigee height: 900 km
apogee height: 910 km
right ascension of ascending node: 21.7615°
argument of perigee: 244.6899°
revolutions per day: 13.96774847
mean anomaly at epoch: 115.3501°
orbit number at epoch: 56894

The dashed part of the orbit path shows where the satellite is in the earth's shadow,  

DLR